Home   Weather   Kitty Hawk   Past weeks
Flag for USA

Past Weather in Kitty Hawk, North Carolina, USA — Yesterday and Last 2 Weeks

Now
45 °F

Clear.


Feels Like: 40 °F
Forecast: 50 / 43 °F
Wind: 8 mph from Northeast

Location: First Flight Airport

Current Time: Jan 23, 2020 at 6:55:56 am

Latest Report: Jan 23, 2020 at 6:15 am


Visibility: 10 mi

Pressure: 30.30 "Hg

Humidity: 88%

Dew Point: 41 °F

Location of Kitty HawkLocation

Past Weather in Kitty Hawk — Graph

°F

Kitty Hawk Temperature Yesterday

Maximum temperature yesterday: 45 °F (at 11:15 am)
Minimum temperature yesterday: 36 °F (at 12:35 am)
Average temperature yesterday: 41 °F

High & Low Weather Summary for the Past Weeks

 TemperatureHumidityPressure
High73 °F (Jan 13, 1:15 pm)100% (Jan 12, 8:35 am)30.72 "Hg (Jan 12, 8:35 am)
Low30 °F (Jan 20, 7:35 am)37% (Jan 8, 1:15 pm)29.81 "Hg (Jan 19, 6:15 am)
Average50 °F76%30.31 "Hg
* Reported Jan 8 5:15 am — Jan 23 5:35 am, Kitty Hawk. Weather by CustomWeather, © 2020

Note: Actual official high and low records may vary slightly from our data, if they occured in-between our weather recording intervals... More about our weather records

Kitty Hawk Weather History for the Previous 24 Hours

Scroll right to see more
 ConditionsComfort  
Time TempWeatherWind HumidityBarometerVisibility
5:35 am
Thu, Jan 23
45 °FClear.8 mph87%30.30 "Hg10 mi
5:15 am45 °FClear.6 mph86%30.30 "Hg10 mi
4:55 am45 °FClear.8 mph85%30.30 "Hg10 mi
4:35 am44 °FClear.8 mph86%30.30 "Hg10 mi
4:15 am44 °FClear.9 mph86%30.30 "Hg10 mi
3:55 am44 °FClear.7 mph85%30.30 "Hg10 mi
3:35 am44 °FClear.8 mph86%30.30 "Hg10 mi
3:15 am44 °FClear.8 mph85%30.31 "Hg10 mi
2:55 am44 °FClear.7 mph84%30.31 "Hg10 mi
2:35 am44 °FClear.5 mph84%30.31 "Hg10 mi
2:15 am44 °FClear.7 mph84%30.31 "Hg10 mi
1:55 am44 °FClear.5 mph83%30.31 "Hg10 mi
1:35 am44 °FClear.6 mph81%30.32 "Hg10 mi
1:15 am44 °FClear.7 mph80%30.32 "Hg10 mi
12:55 am44 °FClear.8 mph80%30.33 "Hg10 mi
12:35 am43 °FClear.7 mph80%30.33 "Hg10 mi
12:15 am43 °FClear.8 mph79%30.34 "Hg10 mi
11:55 pm
Wed, Jan 22
43 °FClear.9 mph79%30.35 "Hg10 mi
11:35 pm43 °FClear.6 mph78%30.35 "Hg10 mi
11:15 pm43 °FClear.7 mph77%30.36 "Hg10 mi
10:55 pm43 °FClear.7 mph77%30.36 "Hg10 mi
10:35 pm43 °FClear.9 mph76%30.36 "Hg10 mi
10:15 pm43 °FClear.8 mph75%30.36 "Hg10 mi
9:55 pm42 °FClear.8 mph76%30.36 "Hg10 mi
9:35 pm42 °FClear.9 mph76%30.36 "Hg10 mi
9:15 pm42 °FClear.9 mph76%30.37 "Hg10 mi
8:55 pm42 °FClear.8 mph75%30.38 "Hg10 mi
8:35 pm42 °FClear.6 mph75%30.38 "Hg10 mi
8:15 pm42 °FClear.9 mph74%30.39 "Hg10 mi
7:55 pm42 °FClear.9 mph75%30.39 "Hg10 mi
7:35 pm41 °FClear.8 mph75%30.38 "Hg10 mi
6:15 pm41 °FClear.7 mph74%30.38 "Hg10 mi
5:55 pm41 °FClear.7 mph77%30.37 "Hg10 mi
5:35 pm41 °FPassing clouds.5 mph77%30.36 "Hg10 mi
5:15 pm41 °FScattered clouds.9 mph76%30.35 "Hg10 mi
4:35 pm41 °FScattered clouds.8 mph74%30.35 "Hg10 mi
3:55 pm43 °FScattered clouds.8 mph72%30.35 "Hg10 mi
3:35 pm43 °FScattered clouds.9 mph71%30.35 "Hg10 mi
3:15 pm43 °FScattered clouds.13 mph71%30.35 "Hg10 mi
2:55 pm44 °FScattered clouds.9 mph72%30.35 "Hg10 mi
2:35 pm44 °FScattered clouds.7 mph71%30.34 "Hg10 mi
2:15 pm44 °FScattered clouds.8 mph71%30.35 "Hg10 mi
1:55 pm44 °FScattered clouds.12 mph71%30.35 "Hg10 mi
1:35 pm44 °FBroken clouds.10 mph71%30.35 "Hg10 mi
12:55 pm43 °FScattered clouds.9 mph72%30.37 "Hg10 mi
12:35 pm43 °FPartly sunny.10 mph73%30.37 "Hg10 mi
12:15 pm43 °FPartly sunny.12 mph71%30.38 "Hg10 mi
11:55 am44 °FBroken clouds.9 mph71%30.38 "Hg10 mi
11:35 am44 °FScattered clouds.9 mph69%30.38 "Hg10 mi
11:15 am45 °FScattered clouds.8 mph64%30.39 "Hg10 mi
10:55 am44 °FSunny.12 mph62%30.39 "Hg10 mi
10:35 am44 °FSunny.13 mph63%30.38 "Hg10 mi
10:15 am44 °FSunny.12 mph63%30.38 "Hg10 mi
9:55 am44 °FSunny.12 mph65%30.38 "Hg10 mi
9:35 am43 °FSunny.9 mph65%30.37 "Hg10 mi
9:15 am42 °FSunny.8 mph67%30.37 "Hg10 mi
8:55 am42 °FSunny.10 mph68%30.37 "Hg10 mi
8:35 am41 °FSunny.12 mph69%30.37 "Hg10 mi
8:15 am41 °FSunny.10 mph70%30.37 "Hg10 mi
7:55 am40 °FSunny.9 mph70%30.36 "Hg10 mi
7:35 am40 °FSunny.9 mph72%30.35 "Hg10 mi
7:15 am39 °FSunny.10 mph72%30.35 "Hg10 mi
6:55 am39 °FClear.12 mph72%30.35 "Hg10 mi
6:35 am39 °FClear.10 mph72%30.35 "Hg10 mi
6:15 am39 °FPassing clouds.9 mph72%30.35 "Hg10 mi
Weather by CustomWeather, © 2020

See weather overview

Advertising